Voltar ao catálogo

CZ-6A DEB

AtivoPO
NORAD 60714·DEBRIS·🇨🇳 China

Lançado Aug 6, 2024 de Taiyuan Satellite Launch Center

Loading…

Próximas Passagens (próximas 24 horas)

TLE

AtualizadoSource: Space-Track

Época: Sep 14, 2026, 06:53 UTC

1 60714U 24140DT  26257.28706165  .00001142  00000-0  26352-3 0  9995
2 60714  89.0368 264.0191 0105423 346.9751  12.8737 14.51245965110616

Acompanhe CZ-6A DEB em tempo real com AllMySat

Download on the App Store